Theta_e
314 314 315 316 317 317 317 317 318 317 317 317 317 317 317 317 317 317 317 318 320 321 322 321 322 322 322 323 326 327 326 325 321 326 326 329 329 330 331 333 332 333 329
312 311 311 311 314 316 316 315 316 315 315 316 316 316 317 317 316 316 316 318 319 320 321 321 322 324 324 322 321 322 324 326 322 318 325 325 326 328 328 327 324 324 325
309 309 309 310 312 313 313 312 312 313 314 313 314 314 314 314 314 315 316 318 319 319 319 319 319 321 322 322 321 321 320 322 321 320 320 325 326 321 320 321 321 320 321
307 307 306 307 308 307 308 308 309 311 311 311 312 313 313 313 314 315 316 316 317 317 317 317 317 318 319 321 322 319 320 319 320 319 319 320 318 316 316 313 314 316 316
305 305 305 305 306 305 306 306 307 308 309 310 310 310 311 313 313 313 315 315 315 315 315 315 316 318 319 319 320 320 320 319 318 318 318 312 312 312 316 316 314 314 316
302 302 304 305 306 306 306 306 307 307 308 308 308 309 310 310 307 306 310 311 311 312 312 313 315 315 316 313 313 314 318 320 318 316 315 314 310 310 312 313 313 312 311
301 302 303 303 304 304 304 304 304 305 306 306 306 307 308 309 303 302 304 308 308 309 311 312 313 316 316 318 314 311 311 310 314 319 312 311 308 311 315 313 314 313 313
297 298 300 300 300 301 301 300 300 301 301 302 303 304 305 306 301 300 301 307 307 308 310 311 312 314 315 315 316 317 318 318 315 316 317 316 313 315 317 317 316 314 314
295 296 297 297 297 297 297 297 298 299 299 299 300 301 302 303 300 299 300 305 305 306 309 310 312 313 307 299 312 316 317 316 311 305 304 303 300 302 310 315 312 312 308
293 294 295 296 295 294 295 295 296 297 297 298 298 300 300 301 299 297 300 304 304 305 307 309 305 308 301 297 312 316 313 312 312 310 307 304 304 306 304 319 313 312 310
293 294 294 293 292 293 293 293 294 295 296 296 296 298 299 300 301 296 296 302 303 303 304 305 308 301 298 297 300 314 310 311 308 309 310 310 310 311 313 314 316 315 311
292 291 291 291 292 292 291 292 293 293 293 294 294 295 296 298 299 297 295 295 299 302 302 305 308 300 297 297 301 302 299 302 313 312 311 312 313 313 313 313 314 314 316
288 288 289 289 290 291 290 290 290 292 291 292 293 294 296 298 299 297 296 294 295 298 302 302 299 297 297 297 296 298 299 307 310 310 312 313 314 316 315 314 313 314 314
288 288 289 289 289 290 291 291 290 290 291 292 292 293 295 298 299 300 299 298 296 298 299 301 301 302 302 306 305 300 306 309 309 312 314 315 314 312 314 314 314 313 314
287 287 288 288 288 289 289 290 290 292 292 291 293 294 294 293 295 296 297 299 299 298 299 302 303 305 307 306 307 309 305 308 309 312 314 314 313 313 313 313 312 312 313
286 287 287 287 288 288 288 288 291 291 291 290 290 291 292 293 293 293 292 292 292 292 297 298 300 302 305 306 306 308 309 306 310 312 312 312 313 312 313 312 312 313 312
285 285 286 286 287 287 287 287 286 290 291 291 290 290 291 291 292 292 292 292 291 291 296 298 299 302 304 306 306 307 308 312 312 312 312 313 313 312 309 312 311 311 311
285 286 286 286 287 288 288 288 288 288 287 289 291 291 291 290 290 290 290 290 293 293 296 297 298 301 304 306 308 309 311 312 312 312 311 312 312 311 310 311 311 312 312
286 286 288 288 289 290 290 289 289 289 289 289 290 291 291 290 290 290 290 292 293 295 297 297 299 300 301 304 307 309 311 312 311 311 311 312 312 311 311 312 312 297 301
287 288 289 291 293 293 292 291 290 290 290 290 290 291 292 289 290 290 291 292 294 296 297 298 299 299 300 301 302 304 307 309 310 310 312 312 312 311 312 312 312 312 310
288 290 288 290 290 290 291 290 291 291 291 292 293 294 288 291 290 290 290 292 293 296 297 297 298 299 299 301 301 301 302 305 309 311 312 312 312 311 313 313 313 313 314
288 288 288 287 288 288 288 289 289 289 289 291 293 291 285 291 291 291 291 292 294 296 298 299 298 299 299 300 301 301 301 302 306 310 311 312 312 312 313 313 314 315 316
287 286 286 286 286 286 286 287 287 287 287 289 290 293 290 290 291 291 292 292 293 295 296 296 297 298 299 300 301 301 301 302 306 309 311 312 312 313 313 314 315 315 315
285 285 284 284 284 284 284 284 285 285 286 287 287 289 291 292 292 292 293 294 294 295 297 297 297 298 299 300 301 302 304 305 307 309 311 313 313 309 315 314 314 313 314
284 283 283 283 282 282 282 283 283 283 284 285 285 286 288 290 294 294 295 296 295 296 296 296 297 298 299 300 300 302 298 290 299 299 313 314 312 312 313 313 312 313 314
282 282 282 282 281 282 281 282 282 282 282 283 284 285 286 287 289 294 295 296 297 297 297 297 297 297 299 300 300 294 290 290 296 290 311 313 313 313 314 313 313 314 315
Wind_Speed
6 5 6 6 6 6 6 6 6 5 6 6 6 5 5 5 5 4 4 5 6 6 6 6 9 8 6 8 8 9 10 10 12 10 4 3 5 5 4 7 7 6 5
3 4 5 5 6 6 6 7 6 7 6 8 7 7 6 6 6 6 6 6 7 8 8 8 10 7 9 9 8 11 10 11 9 12 7 4 5 5 3 4 4 4 4
2 4 6 7 7 8 8 7 7 8 8 7 7 8 8 8 7 7 8 8 8 8 8 9 10 10 11 9 9 9 8 9 8 8 10 6 4 2 2 2 4 2 3
4 3 5 7 5 5 6 7 6 7 8 8 9 9 9 8 8 8 8 8 8 9 9 10 11 11 12 12 11 11 10 10 10 10 10 10 6 3 2 4 4 1 2
3 4 7 6 6 6 7 7 8 7 9 9 9 10 10 9 8 9 9 8 8 9 9 10 11 13 17 14 10 11 11 11 10 11 9 3 4 4 6 3 3 2 2
5 6 6 6 7 7 8 9 9 10 11 11 11 12 12 9 13 15 11 7 8 9 9 11 11 15 13 14 17 21 17 13 13 9 6 6 4 4 3 4 4 4 3
6 6 6 6 6 5 6 6 8 10 10 10 12 14 15 13 15 17 15 8 8 8 8 9 11 10 11 9 10 15 20 21 15 11 6 5 5 8 7 7 4 3 2
9 8 8 8 9 9 9 11 10 10 10 10 11 11 12 10 14 16 16 9 7 8 8 10 12 14 11 10 10 11 12 11 10 9 9 7 8 6 7 5 6 4 1
9 10 10 10 11 12 13 13 13 13 13 12 11 13 14 14 16 18 15 10 9 9 8 9 12 14 12 11 8 11 9 4 3 2 3 5 9 11 9 8 5 4 2
11 11 11 10 11 14 15 14 14 14 15 13 15 15 18 17 18 19 17 9 10 8 7 9 13 17 13 10 7 8 7 3 9 6 1 4 7 10 12 4 7 3 2
12 12 11 13 14 13 13 13 13 13 13 14 14 14 14 16 15 17 18 11 8 7 7 9 9 16 17 12 8 4 4 5 8 8 5 4 6 6 5 5 5 5 4
11 13 13 12 11 11 14 13 13 13 14 14 13 12 11 13 13 11 14 14 11 10 10 8 9 14 15 12 6 9 3 3 5 4 7 6 5 5 6 6 6 4 2
13 13 13 13 12 12 12 12 11 11 11 11 10 10 9 9 10 13 14 13 13 9 7 9 11 10 12 7 7 9 5 3 1 4 7 5 4 4 5 5 4 4 3
14 14 12 12 13 12 10 10 10 10 10 10 9 10 9 7 6 6 6 6 10 9 9 8 10 7 5 7 2 5 4 6 7 5 3 2 4 3 4 4 3 3 0
13 12 12 11 11 11 11 10 10 11 11 10 10 9 9 9 9 8 8 5 4 6 6 5 5 6 6 3 2 4 4 6 8 6 5 4 3 4 3 3 3 3 3
12 10 9 10 9 9 10 11 14 20 23 22 23 17 11 15 13 11 11 8 7 7 3 5 6 6 6 6 5 4 6 9 8 6 3 4 4 4 4 3 3 3 4
11 12 10 11 10 10 9 9 11 9 15 18 21 22 21 19 16 12 13 11 10 3 4 5 5 7 8 6 6 5 7 5 6 4 4 5 4 5 5 5 5 4 4
12 20 11 10 9 9 9 9 8 9 11 10 10 16 16 16 15 13 11 6 5 4 5 7 7 7 7 6 5 7 8 5 4 5 5 4 5 5 5 5 6 5 4
11 9 10 9 9 11 9 8 8 9 9 10 9 8 12 16 12 11 11 8 8 7 5 5 6 6 5 5 5 5 7 6 5 5 5 5 6 5 5 5 4 4 4
9 15 13 8 7 7 6 7 7 8 8 8 8 8 4 4 5 6 6 5 6 7 5 5 3 3 4 3 2 1 3 4 5 5 6 6 5 5 6 5 4 5 5
7 7 9 7 7 7 7 7 7 7 7 8 8 5 5 4 3 4 5 7 6 6 7 6 5 4 3 3 3 2 2 3 4 5 5 6 6 6 5 4 4 5 3
7 7 7 7 7 8 8 8 8 8 8 8 7 4 1 3 2 3 3 4 5 3 5 8 5 5 3 5 4 4 5 4 2 5 6 6 6 6 5 4 4 3 3
8 8 8 7 8 9 8 8 8 8 9 9 9 5 1 1 2 2 3 4 5 6 6 5 4 5 5 6 5 4 6 6 4 4 5 6 6 5 5 5 5 3 3
9 9 9 8 8 8 9 9 9 11 10 9 9 9 7 1 2 3 3 3 5 5 7 9 8 11 9 7 6 6 6 6 6 6 7 5 6 7 6 5 4 3 3
9 9 9 9 10 10 10 10 10 10 10 9 9 9 9 8 2 2 3 2 4 5 6 6 5 10 13 12 10 9 7 6 7 6 7 8 9 9 6 4 4 3 3
10 10 9 9 10 10 10 10 10 10 10 10 10 9 9 9 8 5 3 4 4 5 6 5 7 10 8 8 8 5 6 7 5 4 6 6 6 5 4 4 4 2 5
Wind_Direction
175 153 147 160 164 162 180 191 191 186 191 206 216 225 229 235 246 247 262 274 281 283 285 264 278 276 262 256 246 242 237 229 246 262 252 265 241 217 195 202 211 215 231
132 151 184 190 193 195 204 206 194 205 206 212 215 222 229 230 238 235 245 252 260 272 281 289 284 285 262 239 236 245 240 236 235 239 249 242 229 229 207 204 203 188 194
270 224 211 209 205 215 220 216 208 212 216 217 216 219 225 231 232 234 233 241 246 249 263 274 282 287 277 267 251 244 236 242 234 233 247 233 233 191 207 160 194 207 226
291 268 268 264 276 273 264 255 245 233 233 227 227 229 228 234 231 236 242 242 249 257 259 265 273 272 271 273 264 247 242 242 238 233 236 245 241 222 222 175 176 190 246
299 280 266 272 260 259 265 266 266 257 246 242 235 232 232 229 229 226 227 230 240 254 262 266 265 263 261 256 267 263 237 239 237 234 228 177 182 176 194 163 141 162 231
318 307 309 311 304 287 279 276 272 267 263 257 246 239 237 229 220 221 222 226 236 243 258 270 268 267 263 254 258 248 244 242 239 219 198 197 184 187 153 164 170 175 166
342 333 330 320 308 298 295 288 280 276 272 262 261 257 249 233 219 222 225 229 228 232 242 263 269 265 256 256 272 262 247 232 220 202 196 176 173 188 162 184 151 122 109
324 316 309 304 299 296 293 286 278 273 267 266 266 260 259 256 248 233 230 238 237 236 240 256 266 267 255 251 267 268 261 233 214 213 184 200 210 179 183 130 135 131 226
295 288 286 284 287 288 285 285 281 277 275 269 261 260 256 256 241 233 231 232 234 236 245 261 266 263 251 210 251 257 241 208 220 286 242 205 197 163 144 130 149 165 165
290 292 293 293 292 289 285 284 283 280 276 272 269 264 256 256 242 230 228 231 236 240 243 264 255 252 235 196 226 240 224 256 126 269 344 112 161 162 161 158 153 137 139
300 298 295 293 287 281 280 279 279 276 274 272 273 273 271 267 257 231 231 228 234 243 250 266 265 242 229 211 208 207 232 211 189 187 183 173 160 159 183 192 179 142 146
293 290 289 286 282 283 278 277 278 279 278 276 275 274 269 268 259 236 230 233 241 247 247 252 266 253 215 206 193 226 132 251 135 175 188 188 174 184 188 188 184 186 217
296 290 290 287 284 282 286 284 280 272 269 265 266 271 277 270 252 230 231 237 239 235 244 253 267 258 208 206 194 212 103 218 192 203 199 183 193 173 129 144 149 178 219
295 297 296 293 293 284 274 271 271 271 275 272 266 271 276 304 265 236 240 245 247 246 243 249 253 227 202 142 135 177 171 206 212 221 230 159 126 142 156 159 155 146 166
294 292 290 286 286 287 277 274 271 266 265 275 275 269 261 267 265 289 263 219 224 248 238 246 238 211 205 166 152 210 182 214 214 209 187 168 158 165 169 166 158 140 190
294 293 290 292 288 284 285 287 260 257 262 261 268 262 268 270 281 292 296 280 250 250 245 240 241 222 213 199 155 217 201 204 213 214 202 190 185 199 195 155 155 181 199
294 295 293 291 286 284 280 279 291 286 260 256 258 260 258 254 256 249 257 261 276 256 256 237 226 221 214 181 166 216 255 213 185 188 202 188 182 210 172 183 184 190 210
293 292 288 283 279 278 277 277 277 283 294 292 253 243 252 250 235 226 235 248 257 211 235 228 218 221 217 199 180 190 216 222 188 185 192 166 197 192 178 184 188 196 203
294 291 288 286 282 280 279 277 274 275 275 279 287 259 238 246 233 222 216 229 227 218 212 213 202 200 210 198 205 208 216 206 190 176 197 196 202 190 210 205 175 175 191
294 289 290 298 308 308 295 289 287 284 283 280 277 268 243 213 226 215 216 210 207 215 198 213 203 185 188 197 186 180 238 228 205 182 214 215 206 198 209 200 180 184 205
311 321 324 330 336 331 327 323 326 322 319 315 313 296 190 198 209 211 205 204 206 209 209 203 209 216 213 221 228 254 292 274 231 209 207 210 194 197 202 197 186 198 216
334 340 345 347 344 343 339 335 336 335 333 334 337 359 76 210 209 200 200 196 192 190 213 217 208 206 213 222 222 246 260 271 264 220 210 200 192 192 186 194 192 193 174
352 358 357 356 352 347 347 348 346 346 343 344 343 342 22 228 219 229 191 199 212 194 211 231 222 211 220 233 218 227 258 266 288 265 227 199 192 190 184 169 166 168 193
4 6 3 359 359 358 358 354 351 349 349 351 351 347 348 277 226 220 233 201 192 202 204 208 212 221 231 229 232 238 252 269 278 280 225 196 166 159 152 141 160 210 200
11 8 8 5 5 3 359 1 358 355 352 354 353 350 343 344 308 224 218 185 178 184 200 207 216 217 223 229 237 251 266 287 287 252 197 176 161 156 153 163 187 232 244
16 16 15 11 10 7 5 2 0 357 356 354 353 350 349 349 346 343 243 228 197 182 187 195 203 214 207 222 233 264 286 287 271 197 166 162 154 160 174 172 182 225 257